Time,TemperatureF,DewpointF,PressureIn,WindDirection,WindDirectionDegrees,WindSpeedMPH,WindSpeedGustMPH,Humidity,HourlyPrecipIn,Conditions,Clouds,dailyrainin,SoftwareType,DateUTC
2013-03-04 00:00:00,21.9,5.2,30.03,NNW,338,2.7,2.7,48,0.00,,---,0.00,VWS V14.01,2013-03-04 05:00:00,
2013-03-04 00:05:00,21.9,4.8,30.03,NW,315,4.0,8.1,47,0.00,,---,0.00,VWS V14.01,2013-03-04 05:05:00,
2013-03-04 00:10:00,21.9,4.8,30.03,NW,315,4.0,8.1,47,0.00,,---,0.00,VWS V14.01,2013-03-04 05:10:00,
2013-03-04 00:15:00,21.7,4.6,30.03,NW,315,0.0,4.9,47,0.00,,---,0.00,VWS V14.01,2013-03-04 05:15:00,
2013-03-04 00:20:00,21.9,5.2,30.03,SE,135,2.7,2.7,48,0.00,,---,0.00,VWS V14.01,2013-03-04 05:20:00,
2013-03-04 00:25:00,21.7,5.1,30.03,WSW,248,0.0,3.6,48,0.00,,---,0.00,VWS V14.01,2013-03-04 05:25:00,
2013-03-04 00:30:00,21.9,5.2,30.00,NW,315,0.0,0.0,48,0.00,,---,0.00,VWS V14.01,2013-03-04 05:30:00,
2013-03-04 00:35:00,21.9,5.2,30.00,NNW,338,2.7,2.7,48,0.00,,---,0.00,VWS V14.01,2013-03-04 05:35:00,
2013-03-04 00:40:00,21.9,5.7,30.00,WNW,292,3.1,3.1,49,0.00,,---,0.00,VWS V14.01,2013-03-04 05:40:00,
2013-03-04 00:45:00,21.9,5.7,30.00,NW,315,0.0,3.6,49,0.00,,---,0.00,VWS V14.01,2013-03-04 05:45:00,
2013-03-04 00:50:00,21.9,6.1,30.00,North,0,3.6,3.6,50,0.00,,---,0.00,VWS V14.01,2013-03-04 05:50:00,
2013-03-04 00:55:00,21.9,6.1,30.00,WSW,248,0.0,3.6,50,0.00,,---,0.00,VWS V14.01,2013-03-04 05:55:00,
2013-03-04 01:00:00,21.9,6.1,30.00,NNW,338,0.0,0.0,50,0.00,,---,0.00,VWS V14.01,2013-03-04 06:00:00,
2013-03-04 01:05:00,21.9,6.1,30.00,North,0,2.7,4.0,50,0.00,,---,0.00,VWS V14.01,2013-03-04 06:05:00,
2013-03-04 01:10:00,21.9,6.6,30.00,NNW,338,3.6,3.6,51,0.00,,---,0.00,VWS V14.01,2013-03-04 06:10:00,
2013-03-04 01:15:00,21.9,6.6,30.00,SSW,202,4.0,6.3,51,0.00,,---,0.00,VWS V14.01,2013-03-04 06:15:00,
2013-03-04 01:20:00,21.9,6.6,30.00,South,180,0.0,0.0,51,0.00,,---,0.00,VWS V14.01,2013-03-04 06:20:00,
2013-03-04 01:25:00,21.9,6.6,30.00,WNW,292,0.0,2.2,51,0.00,,---,0.00,VWS V14.01,2013-03-04 06:25:00,
2013-03-04 01:30:00,21.9,7.0,30.00,West,270,0.0,2.7,52,0.00,,---,0.00,VWS V14.01,2013-03-04 06:30:00,
2013-03-04 01:35:00,21.9,7.0,30.00,North,0,0.0,4.9,52,0.00,,---,0.00,VWS V14.01,2013-03-04 06:35:00,
2013-03-04 01:40:00,21.9,7.0,30.00,NW,315,0.0,2.2,52,0.00,,---,0.00,VWS V14.01,2013-03-04 06:40:00,
2013-03-04 01:45:00,22.3,7.8,30.00,NW,315,5.4,6.3,53,0.00,,---,0.00,VWS V14.01,2013-03-04 06:45:00,
2013-03-04 01:50:00,22.5,7.9,30.00,North,0,3.1,4.0,53,0.00,,---,0.00,VWS V14.01,2013-03-04 06:50:00,
2013-03-04 01:55:00,22.5,7.9,30.00,NW,315,3.6,6.7,53,0.00,,---,0.00,VWS V14.01,2013-03-04 06:55:00,
2013-03-04 02:00:00,22.5,7.9,30.00,North,0,0.0,4.0,53,0.00,,---,0.00,VWS V14.01,2013-03-04 07:00:00,
2013-03-04 02:05:00,22.5,8.3,30.00,NNW,338,3.1,4.0,54,0.00,,---,0.00,VWS V14.01,2013-03-04 07:05:00,
2013-03-04 02:10:00,22.5,8.3,30.00,North,0,2.7,2.7,54,0.00,,---,0.00,VWS V14.01,2013-03-04 07:10:00,
2013-03-04 02:15:00,22.5,8.3,30.00,NNE,22,0.0,3.1,54,0.00,,---,0.00,VWS V14.01,2013-03-04 07:15:00,
2013-03-04 02:20:00,22.5,8.3,30.00,North,0,0.0,0.0,54,0.00,,---,0.00,VWS V14.01,2013-03-04 07:20:00,
2013-03-04 02:25:00,22.5,8.8,30.00,North,0,0.0,4.0,55,0.00,,---,0.00,VWS V14.01,2013-03-04 07:25:00,
2013-03-04 02:30:00,22.6,8.9,30.00,NW,315,0.0,0.0,55,0.00,,---,0.00,VWS V14.01,2013-03-04 07:30:00,
2013-03-04 02:35:00,22.5,8.8,30.00,North,0,0.0,7.2,55,0.00,,---,0.00,VWS V14.01,2013-03-04 07:35:00,
2013-03-04 02:40:00,22.5,8.8,30.03,North,0,2.7,2.7,55,0.00,,---,0.00,VWS V14.01,2013-03-04 07:40:00,
2013-03-04 02:45:00,22.5,8.8,30.03,North,0,2.2,3.6,55,0.00,,---,0.00,VWS V14.01,2013-03-04 07:45:00,
2013-03-04 02:50:00,22.5,8.8,30.03,NNE,22,2.7,2.7,55,0.00,,---,0.00,VWS V14.01,2013-03-04 07:50:00,
2013-03-04 02:55:00,22.5,9.1,30.03,NW,315,0.0,3.6,56,0.00,,---,0.00,VWS V14.01,2013-03-04 07:55:00,
2013-03-04 03:00:00,22.5,9.1,30.03,NNW,338,3.1,3.1,56,0.00,,---,0.00,VWS V14.01,2013-03-04 08:00:00,
2013-03-04 03:05:00,22.5,9.5,30.03,North,0,0.0,3.6,57,0.00,,---,0.00,VWS V14.01,2013-03-04 08:05:00,
2013-03-04 03:10:00,22.5,9.5,30.03,North,0,3.1,3.6,57,0.00,,---,0.00,VWS V14.01,2013-03-04 08:10:00,
2013-03-04 03:15:00,22.5,9.9,30.03,NE,45,0.0,3.1,58,0.00,,---,0.00,VWS V14.01,2013-03-04 08:15:00,
2013-03-04 03:20:00,22.6,10.5,30.03,NW,315,3.1,4.9,59,0.00,,---,0.00,VWS V14.01,2013-03-04 08:20:00,
2013-03-04 03:25:00,22.8,10.6,30.03,NW,315,2.2,4.9,59,0.00,,---,0.00,VWS V14.01,2013-03-04 08:25:00,
2013-03-04 03:30:00,22.8,11.0,30.03,NNE,22,3.1,4.0,60,0.00,,---,0.00,VWS V14.01,2013-03-04 08:30:00,
2013-03-04 03:35:00,22.8,11.0,30.03,North,0,3.6,7.6,60,0.00,,---,0.00,VWS V14.01,2013-03-04 08:35:00,
2013-03-04 03:40:00,23.0,11.6,30.03,NNW,338,0.0,0.0,61,0.00,,---,0.00,VWS V14.01,2013-03-04 08:40:00,
2013-03-04 03:45:00,23.0,11.2,30.03,NW,315,4.9,6.3,60,0.00,,---,0.00,VWS V14.01,2013-03-04 08:45:00,
2013-03-04 03:50:00,23.0,11.2,30.03,North,0,0.0,3.1,60,0.00,,---,0.00,VWS V14.01,2013-03-04 08:50:00,
2013-03-04 03:55:00,23.0,10.8,30.03,WNW,292,4.0,5.8,59,0.00,,---,0.00,VWS V14.01,2013-03-04 08:55:00,
2013-03-04 04:00:00,23.0,10.4,30.03,SW,225,2.7,4.5,58,0.00,,---,0.00,VWS V14.01,2013-03-04 09:00:00,
2013-03-04 04:05:00,23.2,9.8,30.03,NNW,338,6.3,6.3,56,0.00,,---,0.00,VWS V14.01,2013-03-04 09:05:00,
2013-03-04 04:10:00,23.2,9.4,30.03,NNW,338,2.2,2.2,55,0.00,,---,0.00,VWS V14.01,2013-03-04 09:10:00,
2013-03-04 04:15:00,23.2,9.4,30.03,North,0,3.1,5.8,55,0.00,,---,0.00,VWS V14.01,2013-03-04 09:15:00,
2013-03-04 04:20:00,23.2,9.0,30.03,South,180,2.7,4.9,54,0.00,,---,0.00,VWS V14.01,2013-03-04 09:20:00,
2013-03-04 04:25:00,23.2,8.6,30.03,North,0,4.0,6.3,53,0.00,,---,0.00,VWS V14.01,2013-03-04 09:25:00,
2013-03-04 04:30:00,23.2,8.2,30.03,NW,315,3.6,3.6,52,0.00,,---,0.00,VWS V14.01,2013-03-04 09:30:00,
2013-03-04 04:35:00,23.2,8.2,30.03,WNW,292,2.7,4.9,52,0.00,,---,0.00,VWS V14.01,2013-03-04 09:35:00,
2013-03-04 04:40:00,23.2,7.8,30.03,NW,315,3.6,3.6,51,0.00,,---,0.00,VWS V14.01,2013-03-04 09:40:00,
2013-03-04 04:45:00,23.2,7.8,30.03,North,0,3.1,5.8,51,0.00,,---,0.00,VWS V14.01,2013-03-04 09:45:00,
2013-03-04 04:50:00,23.2,7.3,30.03,NW,315,3.1,3.1,50,0.00,,---,0.00,VWS V14.01,2013-03-04 09:50:00,
2013-03-04 04:55:00,23.2,7.3,30.03,NNE,22,3.6,5.8,50,0.00,,---,0.00,VWS V14.01,2013-03-04 09:55:00,
2013-03-04 05:00:00,23.2,6.9,30.03,NNE,22,2.2,2.2,49,0.00,,---,0.00,VWS V14.01,2013-03-04 10:00:00,
2013-03-04 05:05:00,23.2,6.4,30.03,NW,315,4.9,5.8,48,0.00,,---,0.00,VWS V14.01,2013-03-04 10:05:00,
2013-03-04 05:10:00,23.2,5.9,30.03,North,0,0.0,6.7,47,0.00,,---,0.00,VWS V14.01,2013-03-04 10:10:00,
2013-03-04 05:15:00,23.0,5.8,30.03,ESE,112,3.6,7.6,47,0.00,,---,0.00,VWS V14.01,2013-03-04 10:15:00,
2013-03-04 05:20:00,23.0,5.3,30.03,NNW,338,6.3,6.3,46,0.00,,---,0.00,VWS V14.01,2013-03-04 10:20:00,
2013-03-04 05:25:00,23.0,5.3,30.03,NNW,338,0.0,7.2,46,0.00,,---,0.00,VWS V14.01,2013-03-04 10:25:00,
2013-03-04 05:30:00,22.8,5.2,30.03,NW,315,0.0,3.6,46,0.00,,---,0.00,VWS V14.01,2013-03-04 10:30:00,
2013-03-04 05:35:00,22.8,5.2,30.03,NW,315,2.7,5.4,46,0.00,,---,0.00,VWS V14.01,2013-03-04 10:35:00,
2013-03-04 05:40:00,22.8,5.2,30.03,SW,225,3.6,3.6,46,0.00,,---,0.00,VWS V14.01,2013-03-04 10:40:00,
2013-03-04 05:45:00,22.8,4.7,30.03,NE,45,3.6,6.7,45,0.00,,---,0.00,VWS V14.01,2013-03-04 10:45:00,
2013-03-04 05:50:00,22.8,4.7,30.03,NW,315,2.7,3.1,45,0.00,,---,0.00,VWS V14.01,2013-03-04 10:50:00,
2013-03-04 05:55:00,22.8,5.2,30.06,NW,315,4.0,5.4,46,0.00,,---,0.00,VWS V14.01,2013-03-04 10:55:00,
2013-03-04 06:00:00,22.6,5.0,30.06,West,270,3.1,3.1,46,0.00,,---,0.00,VWS V14.01,2013-03-04 11:00:00,
2013-03-04 06:05:00,22.8,5.2,30.06,NW,315,3.6,6.3,46,0.00,,---,0.00,VWS V14.01,2013-03-04 11:05:00,
2013-03-04 06:10:00,22.8,5.2,30.09,NW,315,3.6,3.6,46,0.00,,---,0.00,VWS V14.01,2013-03-04 11:10:00,
2013-03-04 06:15:00,22.8,5.2,30.09,SSW,202,0.0,3.6,46,0.00,,---,0.00,VWS V14.01,2013-03-04 11:15:00,
2013-03-04 06:20:00,22.8,5.2,30.09,West,270,3.1,3.6,46,0.00,,---,0.00,VWS V14.01,2013-03-04 11:20:00,
2013-03-04 06:25:00,22.8,5.2,30.09,NW,315,0.0,3.6,46,0.00,,---,0.00,VWS V14.01,2013-03-04 11:25:00,
2013-03-04 06:30:00,22.8,5.2,30.09,NW,315,0.0,0.0,46,0.00,,---,0.00,VWS V14.01,2013-03-04 11:30:00,
2013-03-04 06:35:00,22.8,5.2,30.09,North,0,0.0,3.1,46,0.00,,---,0.00,VWS V14.01,2013-03-04 11:35:00,
2013-03-04 06:40:00,22.8,5.2,30.09,ENE,68,3.1,3.1,46,0.00,,---,0.00,VWS V14.01,2013-03-04 11:40:00,
2013-03-04 06:45:00,22.8,5.2,30.09,NW,315,0.0,4.0,46,0.00,,---,0.00,VWS V14.01,2013-03-04 11:45:00,
2013-03-04 06:50:00,22.8,5.2,30.09,NW,315,4.5,5.4,46,0.00,,---,0.00,VWS V14.01,2013-03-04 11:50:00,
2013-03-04 06:55:00,22.8,5.2,30.09,NNE,22,0.0,5.4,46,0.00,,---,0.00,VWS V14.01,2013-03-04 11:55:00,
2013-03-04 07:00:00,23.0,5.3,30.09,NE,45,0.0,0.0,46,0.00,,---,0.00,VWS V14.01,2013-03-04 12:00:00,
2013-03-04 07:05:00,23.0,5.3,30.09,SW,225,0.0,5.4,46,0.00,,---,0.00,VWS V14.01,2013-03-04 12:05:00,
2013-03-04 07:10:00,23.0,5.3,30.09,NW,315,2.7,3.1,46,0.00,,---,0.00,VWS V14.01,2013-03-04 12:10:00,
2013-03-04 07:15:00,23.2,5.5,30.09,WNW,292,2.2,4.0,46,0.00,,---,0.00,VWS V14.01,2013-03-04 12:15:00,
2013-03-04 07:20:00,23.2,5.5,30.09,NW,315,0.0,2.7,46,0.00,,---,0.00,VWS V14.01,2013-03-04 12:20:00,
2013-03-04 07:25:00,23.2,5.5,30.12,North,0,2.7,4.0,46,0.00,,---,0.00,VWS V14.01,2013-03-04 12:25:00,
2013-03-04 07:30:00,23.2,5.0,30.12,NNW,338,3.1,3.1,45,0.00,,---,0.00,VWS V14.01,2013-03-04 12:30:00,
2013-03-04 07:35:00,23.2,4.5,30.12,NNW,338,2.2,7.2,44,0.00,,---,0.00,VWS V14.01,2013-03-04 12:35:00,
2013-03-04 07:40:00,23.4,4.7,30.09,SW,225,2.7,4.9,44,0.00,,---,0.00,VWS V14.01,2013-03-04 12:40:00,
2013-03-04 07:45:00,23.4,4.2,30.09,NW,315,3.1,4.9,43,0.00,,---,0.00,VWS V14.01,2013-03-04 12:45:00,
2013-03-04 07:50:00,23.4,4.2,30.09,NNE,22,0.0,2.7,43,0.00,,---,0.00,VWS V14.01,2013-03-04 12:50:00,
2013-03-04 07:55:00,23.5,4.3,30.12,West,270,3.1,4.0,43,0.00,,---,0.00,VWS V14.01,2013-03-04 12:55:00,
2013-03-04 08:00:00,23.4,4.2,30.12,West,270,2.7,2.7,43,0.00,,---,0.00,VWS V14.01,2013-03-04 13:00:00,
2013-03-04 08:05:00,23.4,4.2,30.12,West,270,3.1,7.6,43,0.00,,---,0.00,VWS V14.01,2013-03-04 13:05:00,
2013-03-04 08:10:00,23.4,3.7,30.12,NNW,338,2.7,2.7,42,0.00,,---,0.00,VWS V14.01,2013-03-04 13:10:00,
2013-03-04 08:15:00,23.5,3.8,30.12,NW,315,3.6,3.6,42,0.00,,---,0.00,VWS V14.01,2013-03-04 13:15:00,
2013-03-04 08:20:00,23.5,3.8,30.12,SW,225,2.2,3.6,42,0.00,,---,0.00,VWS V14.01,2013-03-04 13:20:00,
2013-03-04 08:25:00,23.5,3.8,30.12,NE,45,4.5,6.3,42,0.00,,---,0.00,VWS V14.01,2013-03-04 13:25:00,
2013-03-04 08:30:00,23.5,3.8,30.12,NW,315,5.8,5.8,42,0.00,,---,0.00,VWS V14.01,2013-03-04 13:30:00,
2013-03-04 08:35:00,23.5,3.8,30.12,NNE,22,6.3,8.1,42,0.00,,---,0.00,VWS V14.01,2013-03-04 13:35:00,
2013-03-04 08:40:00,23.7,4.0,30.12,NW,315,3.1,3.1,42,0.00,,---,0.00,VWS V14.01,2013-03-04 13:40:00,
2013-03-04 08:45:00,23.5,3.8,30.12,NW,315,3.6,7.6,42,0.00,,---,0.00,VWS V14.01,2013-03-04 13:45:00,
2013-03-04 08:50:00,23.5,3.8,30.12,SW,225,3.6,3.6,42,0.00,,---,0.00,VWS V14.01,2013-03-04 13:50:00,
2013-03-04 08:55:00,23.5,3.8,30.12,SW,225,0.0,5.8,42,0.00,,---,0.00,VWS V14.01,2013-03-04 13:55:00,
2013-03-04 09:00:00,23.5,3.8,30.12,South,180,2.2,4.0,42,0.00,,---,0.00,VWS V14.01,2013-03-04 14:00:00,
2013-03-04 09:05:00,23.5,3.8,30.12,South,180,3.1,5.4,42,0.00,,---,0.00,VWS V14.01,2013-03-04 14:05:00,
2013-03-04 09:10:00,23.7,4.5,30.12,NW,315,0.0,0.0,43,0.00,,---,0.00,VWS V14.01,2013-03-04 14:10:00,
2013-03-04 09:15:00,23.9,4.7,30.12,WSW,248,0.0,4.9,43,0.00,,---,0.00,VWS V14.01,2013-03-04 14:15:00,
2013-03-04 09:20:00,24.1,4.8,30.12,SW,225,2.7,4.9,43,0.00,,---,0.00,VWS V14.01,2013-03-04 14:20:00,
2013-03-04 09:25:00,24.3,5.0,30.12,SW,225,2.7,4.9,43,0.00,,---,0.00,VWS V14.01,2013-03-04 14:25:00,
2013-03-04 09:30:00,24.3,5.0,30.12,NNW,338,3.6,3.6,43,0.00,,---,0.00,VWS V14.01,2013-03-04 14:30:00,
2013-03-04 09:35:00,24.4,5.7,30.12,NNW,338,4.0,4.0,44,0.00,,---,0.00,VWS V14.01,2013-03-04 14:35:00,
2013-03-04 09:40:00,24.3,5.5,30.12,SW,225,5.4,5.4,44,0.00,,---,0.00,VWS V14.01,2013-03-04 14:40:00,
2013-03-04 09:45:00,24.8,6.0,30.12,SW,225,0.0,5.4,44,0.00,,---,0.00,VWS V14.01,2013-03-04 14:45:00,
2013-03-04 09:50:00,24.6,5.8,30.12,SSW,202,2.2,4.0,44,0.00,,---,0.00,VWS V14.01,2013-03-04 14:50:00,
2013-03-04 09:55:00,25.2,6.8,30.12,East,90,0.0,4.0,45,0.00,,---,0.00,VWS V14.01,2013-03-04 14:55:00,
2013-03-04 10:00:00,25.0,6.2,30.12,SW,225,3.6,5.8,44,0.00,,---,0.00,VWS V14.01,2013-03-04 15:00:00,
2013-03-04 10:05:00,25.0,6.2,30.12,SSW,202,0.0,5.8,44,0.00,,---,0.00,VWS V14.01,2013-03-04 15:05:00,
2013-03-04 10:10:00,25.2,6.3,30.12,NW,315,4.0,5.8,44,0.00,,---,0.00,VWS V14.01,2013-03-04 15:10:00,
2013-03-04 10:15:00,25.2,6.3,30.12,SW,225,0.0,5.8,44,0.00,,---,0.00,VWS V14.01,2013-03-04 15:15:00,
2013-03-04 10:20:00,25.3,6.5,30.12,SE,135,0.0,0.0,44,0.00,,---,0.00,VWS V14.01,2013-03-04 15:20:00,
2013-03-04 10:25:00,25.3,6.5,30.12,SW,225,0.0,7.2,44,0.00,,---,0.00,VWS V14.01,2013-03-04 15:25:00,
2013-03-04 10:30:00,25.3,6.5,30.12,West,270,3.6,3.6,44,0.00,,---,0.00,VWS V14.01,2013-03-04 15:30:00,
2013-03-04 10:35:00,25.3,6.5,30.12,South,180,3.6,7.6,44,0.00,,---,0.00,VWS V14.01,2013-03-04 15:35:00,
2013-03-04 10:40:00,25.3,6.5,30.12,NW,315,2.7,7.6,44,0.00,,---,0.00,VWS V14.01,2013-03-04 15:40:00,
2013-03-04 10:45:00,25.3,6.5,30.12,NW,315,5.8,7.6,44,0.00,,---,0.00,VWS V14.01,2013-03-04 15:45:00,
2013-03-04 10:50:00,25.3,6.5,30.12,North,0,0.0,0.0,44,0.00,,---,0.00,VWS V14.01,2013-03-04 15:50:00,
2013-03-04 10:55:00,25.5,6.7,30.12,NNW,338,4.0,6.3,44,0.00,,---,0.00,VWS V14.01,2013-03-04 15:55:00,
2013-03-04 11:00:00,25.9,6.5,30.12,South,180,0.0,2.2,43,0.00,,---,0.00,VWS V14.01,2013-03-04 16:00:00,
2013-03-04 11:05:00,26.1,6.6,30.12,NW,315,2.7,5.8,43,0.00,,---,0.00,VWS V14.01,2013-03-04 16:05:00,
2013-03-04 11:10:00,26.1,6.1,30.12,West,270,3.1,3.1,42,0.00,,---,0.00,VWS V14.01,2013-03-04 16:10:00,
2013-03-04 11:15:00,26.4,6.4,30.12,NW,315,6.3,6.3,42,0.00,,---,0.00,VWS V14.01,2013-03-04 16:15:00,
2013-03-04 11:20:00,25.9,5.4,30.12,SW,225,3.1,4.0,41,0.00,,---,0.00,VWS V14.01,2013-03-04 16:20:00,
2013-03-04 11:25:00,26.2,5.8,30.15,North,0,3.6,5.8,41,0.00,,---,0.00,VWS V14.01,2013-03-04 16:25:00,
2013-03-04 11:30:00,26.6,6.1,30.15,SW,225,5.8,5.8,41,0.00,,---,0.00,VWS V14.01,2013-03-04 16:30:00,
2013-03-04 11:35:00,26.2,5.8,30.15,West,270,2.7,9.2,41,0.00,,---,0.00,VWS V14.01,2013-03-04 16:35:00,
2013-03-04 11:40:00,26.4,5.9,30.15,NW,315,2.7,3.1,41,0.00,,---,0.00,VWS V14.01,2013-03-04 16:40:00,
2013-03-04 11:45:00,26.4,5.9,30.15,NNW,338,6.7,7.6,41,0.00,,---,0.00,VWS V14.01,2013-03-04 16:45:00,
2013-03-04 11:50:00,26.2,5.8,30.15,SE,135,4.0,4.0,41,0.00,,---,0.00,VWS V14.01,2013-03-04 16:50:00,
2013-03-04 11:55:00,26.1,5.6,30.12,NW,315,5.8,10.5,41,0.00,,---,0.00,VWS V14.01,2013-03-04 16:55:00,
2013-03-04 12:00:00,26.1,5.1,30.12,NE,45,2.7,2.7,40,0.00,,---,0.00,VWS V14.01,2013-03-04 17:00:00,
2013-03-04 12:05:00,26.2,5.2,30.12,SW,225,2.7,7.6,40,0.00,,---,0.00,VWS V14.01,2013-03-04 17:05:00,
2013-03-04 12:10:00,26.1,4.5,30.15,SW,225,4.9,4.9,39,0.00,,---,0.00,VWS V14.01,2013-03-04 17:10:00,
2013-03-04 12:15:00,26.1,3.9,30.15,WNW,292,2.2,6.3,38,0.00,,---,0.00,VWS V14.01,2013-03-04 17:15:00,
2013-03-04 12:20:00,26.1,3.9,30.15,NW,315,3.1,3.6,38,0.00,,---,0.00,VWS V14.01,2013-03-04 17:20:00,
2013-03-04 12:25:00,26.4,3.7,30.15,NW,315,2.2,6.3,37,0.00,,---,0.00,VWS V14.01,2013-03-04 17:25:00,
2013-03-04 12:30:00,26.2,2.9,30.15,NW,315,4.9,10.1,36,0.00,,---,0.00,VWS V14.01,2013-03-04 17:30:00,
2013-03-04 12:35:00,25.7,1.2,30.15,NW,315,4.0,10.5,34,0.00,,---,0.00,VWS V14.01,2013-03-04 17:35:00,
2013-03-04 12:40:00,26.6,3.3,30.15,SSW,202,2.7,2.7,36,0.00,,---,0.00,VWS V14.01,2013-03-04 17:40:00,
2013-03-04 12:45:00,26.1,2.2,30.15,SW,225,2.7,6.3,35,0.00,,---,0.00,VWS V14.01,2013-03-04 17:45:00,
2013-03-04 12:50:00,26.1,2.2,30.15,West,270,3.6,3.6,35,0.00,,---,0.00,VWS V14.01,2013-03-04 17:50:00,
2013-03-04 12:55:00,26.4,3.1,30.15,SE,135,8.7,8.7,36,0.00,,---,0.00,VWS V14.01,2013-03-04 17:55:00,
2013-03-04 13:00:00,26.4,3.1,30.15,NW,315,4.9,4.9,36,0.00,,---,0.00,VWS V14.01,2013-03-04 18:00:00,
2013-03-04 13:05:00,26.6,3.8,30.15,SW,225,7.2,7.2,37,0.00,,---,0.00,VWS V14.01,2013-03-04 18:05:00,
2013-03-04 13:10:00,26.4,3.7,30.12,SW,225,3.6,3.6,37,0.00,,---,0.00,VWS V14.01,2013-03-04 18:10:00,
2013-03-04 13:15:00,26.1,3.4,30.12,SW,225,2.7,8.3,37,0.00,,---,0.00,VWS V14.01,2013-03-04 18:15:00,
2013-03-04 13:20:00,26.8,4.0,30.12,NW,315,2.7,3.6,37,0.00,,---,0.00,VWS V14.01,2013-03-04 18:20:00,
2013-03-04 13:25:00,26.2,2.9,30.12,South,180,7.2,7.2,36,0.00,,---,0.00,VWS V14.01,2013-03-04 18:25:00,
2013-03-04 13:29:00,26.4,3.1,30.12,SW,225,2.7,7.2,36,0.00,,---,0.00,VWS V14.01,2013-03-04 18:29:00,
2013-03-04 13:30:00,26.6,3.3,30.12,NW,315,4.0,4.0,36,0.00,,---,0.00,VWS V14.01,2013-03-04 18:30:00,
2013-03-04 13:35:00,26.2,2.9,30.12,North,0,4.9,8.3,36,0.00,,---,0.00,VWS V14.01,2013-03-04 18:35:00,
2013-03-04 13:40:00,26.6,3.3,30.15,NW,315,7.6,7.6,36,0.00,,---,0.00,VWS V14.01,2013-03-04 18:40:00,
2013-03-04 13:45:00,26.8,2.8,30.15,West,270,2.2,7.6,35,0.00,,---,0.00,VWS V14.01,2013-03-04 18:45:00,
2013-03-04 13:50:00,27.1,3.1,30.15,North,0,3.6,7.6,35,0.00,,---,0.00,VWS V14.01,2013-03-04 18:50:00,
2013-03-04 13:55:00,27.0,1.7,30.12,North,0,9.6,9.6,33,0.00,,---,0.00,VWS V14.01,2013-03-04 18:55:00,
2013-03-04 14:00:00,26.6,2.0,30.12,NNW,338,3.6,3.6,34,0.00,,---,0.00,VWS V14.01,2013-03-04 19:00:00,
2013-03-04 14:05:00,27.0,2.3,30.12,SW,225,3.6,8.7,34,0.00,,---,0.00,VWS V14.01,2013-03-04 19:05:00,
2013-03-04 14:10:00,26.6,1.4,30.12,NNW,338,3.1,4.9,33,0.00,,---,0.00,VWS V14.01,2013-03-04 19:10:00,
2013-03-04 14:15:00,27.1,1.9,30.12,NW,315,4.5,7.2,33,0.00,,---,0.00,VWS V14.01,2013-03-04 19:15:00,
2013-03-04 14:20:00,27.1,1.9,30.12,SW,225,2.7,2.7,33,0.00,,---,0.00,VWS V14.01,2013-03-04 19:20:00,
2013-03-04 14:25:00,27.3,2.0,30.12,NW,315,5.4,7.2,33,0.00,,---,0.00,VWS V14.01,2013-03-04 19:25:00,
2013-03-04 14:30:00,27.0,1.0,30.12,NW,315,6.3,6.3,32,0.00,,---,0.00,VWS V14.01,2013-03-04 19:30:00,
2013-03-04 14:35:00,27.5,1.5,30.12,West,270,3.1,7.6,32,0.00,,---,0.00,VWS V14.01,2013-03-04 19:35:00,
2013-03-04 14:40:00,27.0,1.0,30.12,South,180,4.0,5.4,32,0.00,,---,0.00,VWS V14.01,2013-03-04 19:40:00,
2013-03-04 14:45:00,27.0,1.0,30.12,NW,315,4.9,8.3,32,0.00,,---,0.00,VWS V14.01,2013-03-04 19:45:00,
2013-03-04 14:50:00,27.5,1.5,30.12,NW,315,7.2,8.3,32,0.00,,---,0.00,VWS V14.01,2013-03-04 19:50:00,
2013-03-04 14:55:00,27.7,1.7,30.12,NNW,338,4.0,10.5,32,0.00,,---,0.00,VWS V14.01,2013-03-04 19:55:00,
2013-03-04 15:00:00,27.9,1.2,30.12,NW,315,2.7,2.7,31,0.00,,---,0.00,VWS V14.01,2013-03-04 20:00:00,
2013-03-04 15:05:00,28.8,2.0,30.12,NW,315,4.0,5.8,31,0.00,,---,0.00,VWS V14.01,2013-03-04 20:05:00,
2013-03-04 15:10:00,28.8,1.2,30.12,SSW,202,4.9,5.8,30,0.00,,---,0.00,VWS V14.01,2013-03-04 20:10:00,
2013-03-04 15:15:00,29.5,0.4,30.12,WSW,248,5.4,5.8,28,0.00,,---,0.00,VWS V14.01,2013-03-04 20:15:00,
2013-03-04 15:20:00,29.8,0.7,30.12,NW,315,2.2,8.7,28,0.00,,---,0.00,VWS V14.01,2013-03-04 20:20:00,
2013-03-04 15:25:00,31.3,-0.4,30.12,NW,315,2.2,4.0,25,0.00,,---,0.00,VWS V14.01,2013-03-04 20:25:00,
2013-03-04 15:30:00,30.2,-1.4,30.12,North,0,3.6,4.9,25,0.00,,---,0.00,VWS V14.01,2013-03-04 20:30:00,
2013-03-04 15:35:00,28.2,-2.2,30.12,SW,225,3.1,7.2,26,0.00,,---,0.00,VWS V14.01,2013-03-04 20:35:00,
2013-03-04 15:40:00,28.6,1.1,30.12,NW,315,2.2,7.2,30,0.00,,---,0.00,VWS V14.01,2013-03-04 20:40:00,
2013-03-04 15:45:00,28.6,1.1,30.12,East,90,3.1,7.2,30,0.00,,---,0.00,VWS V14.01,2013-03-04 20:45:00,
2013-03-04 15:50:00,27.9,1.2,30.12,SW,225,3.6,3.6,31,0.00,,---,0.00,VWS V14.01,2013-03-04 20:50:00,
2013-03-04 15:55:00,27.3,0.7,30.12,WSW,248,2.2,3.6,31,0.00,,---,0.00,VWS V14.01,2013-03-04 20:55:00,
2013-03-04 16:00:00,27.0,0.4,30.12,NE,45,5.8,5.8,31,0.00,,---,0.00,VWS V14.01,2013-03-04 21:00:00,
2013-03-04 16:05:00,27.0,1.0,30.12,NW,315,0.0,5.8,32,0.00,,---,0.00,VWS V14.01,2013-03-04 21:05:00,
2013-03-04 16:10:00,26.2,0.4,30.12,NW,315,2.2,6.3,32,0.00,,---,0.00,VWS V14.01,2013-03-04 21:10:00,
2013-03-04 16:15:00,26.8,0.9,30.12,NW,315,0.0,6.3,32,0.00,,---,0.00,VWS V14.01,2013-03-04 21:15:00,
2013-03-04 16:20:00,26.8,1.5,30.12,SW,225,2.7,3.1,33,0.00,,---,0.00,VWS V14.01,2013-03-04 21:20:00,
2013-03-04 16:25:00,26.8,1.5,30.12,North,0,3.6,7.2,33,0.00,,---,0.00,VWS V14.01,2013-03-04 21:25:00,
2013-03-04 16:30:00,26.6,2.0,30.12,NW,315,4.9,7.2,34,0.00,,---,0.00,VWS V14.01,2013-03-04 21:30:00,
2013-03-04 16:35:00,26.4,1.9,30.12,SW,225,4.0,6.3,34,0.00,,---,0.00,VWS V14.01,2013-03-04 21:35:00,
2013-03-04 16:40:00,26.4,2.5,30.12,SSW,202,4.0,4.0,35,0.00,,---,0.00,VWS V14.01,2013-03-04 21:40:00,
2013-03-04 16:45:00,26.1,1.5,30.12,NW,315,0.0,6.7,34,0.00,,---,0.00,VWS V14.01,2013-03-04 21:45:00,
2013-03-04 16:50:00,26.1,1.5,30.12,SW,225,4.0,4.0,34,0.00,,---,0.00,VWS V14.01,2013-03-04 21:50:00,
2013-03-04 16:55:00,26.1,2.2,30.12,SW,225,0.0,4.0,35,0.00,,---,0.00,VWS V14.01,2013-03-04 21:55:00,
2013-03-04 17:00:00,26.2,2.3,30.12,NW,315,4.9,4.9,35,0.00,,---,0.00,VWS V14.01,2013-03-04 22:00:00,
2013-03-04 17:05:00,26.2,1.7,30.12,WNW,292,2.7,6.7,34,0.00,,---,0.00,VWS V14.01,2013-03-04 22:05:00,
2013-03-04 17:10:00,26.4,1.9,30.12,NW,315,2.2,4.0,34,0.00,,---,0.00,VWS V14.01,2013-03-04 22:10:00,
2013-03-04 17:15:00,26.6,2.0,30.12,NNW,338,2.2,4.0,34,0.00,,---,0.00,VWS V14.01,2013-03-04 22:15:00,
2013-03-04 17:20:00,26.4,1.9,30.12,South,180,0.0,0.0,34,0.00,,---,0.00,VWS V14.01,2013-03-04 22:20:00,
2013-03-04 17:25:00,26.2,1.7,30.12,SW,225,4.5,4.9,34,0.00,,---,0.00,VWS V14.01,2013-03-04 22:25:00,
2013-03-04 17:30:00,25.5,1.1,30.12,NW,315,0.0,0.0,34,0.00,,---,0.00,VWS V14.01,2013-03-04 22:30:00,
2013-03-04 17:35:00,25.3,1.5,30.12,West,270,0.0,5.8,35,0.00,,---,0.00,VWS V14.01,2013-03-04 22:35:00,
2013-03-04 17:40:00,24.8,2.2,30.12,NW,315,3.1,3.1,37,0.00,,---,0.00,VWS V14.01,2013-03-04 22:40:00,
2013-03-04 17:45:00,24.4,1.9,30.12,NW,315,3.1,5.8,37,0.00,,---,0.00,VWS V14.01,2013-03-04 22:45:00,
2013-03-04 17:50:00,24.3,2.3,30.12,South,180,0.0,5.8,38,0.00,,---,0.00,VWS V14.01,2013-03-04 22:50:00,
2013-03-04 17:55:00,23.9,3.1,30.12,West,270,0.0,5.8,40,0.00,,---,0.00,VWS V14.01,2013-03-04 22:55:00,
2013-03-04 18:00:00,23.7,2.9,30.12,NNW,338,3.1,5.8,40,0.00,,---,0.00,VWS V14.01,2013-03-04 23:00:00,
2013-03-04 18:05:00,23.5,3.8,30.12,SW,225,3.6,3.6,42,0.00,,---,0.00,VWS V14.01,2013-03-04 23:05:00,
2013-03-04 18:10:00,23.2,3.5,30.12,SW,225,0.0,3.1,42,0.00,,---,0.00,VWS V14.01,2013-03-04 23:10:00,
2013-03-04 18:15:00,23.0,3.8,30.12,SW,225,0.0,5.4,43,0.00,,---,0.00,VWS V14.01,2013-03-04 23:15:00,
2013-03-04 18:20:00,22.6,3.5,30.12,SW,225,0.0,0.0,43,0.00,,---,0.00,VWS V14.01,2013-03-04 23:20:00,
2013-03-04 18:25:00,22.3,3.7,30.12,SW,225,0.0,0.0,44,0.00,,---,0.00,VWS V14.01,2013-03-04 23:25:00,
2013-03-04 18:30:00,21.9,3.4,30.12,SW,225,0.0,0.0,44,0.00,,---,0.00,VWS V14.01,2013-03-04 23:30:00,
2013-03-04 18:35:00,21.7,3.2,30.12,SW,225,2.2,2.2,44,0.00,,---,0.00,VWS V14.01,2013-03-04 23:35:00,
2013-03-04 18:40:00,21.4,3.3,30.12,SW,225,0.0,0.0,45,0.00,,---,0.00,VWS V14.01,2013-03-04 23:40:00,
2013-03-04 18:45:00,21.2,3.7,30.12,SW,225,0.0,0.0,46,0.00,,---,0.00,VWS V14.01,2013-03-04 23:45:00,
2013-03-04 18:50:00,21.2,3.7,30.12,SW,225,0.0,0.0,46,0.00,,---,0.00,VWS V14.01,2013-03-04 23:50:00,
2013-03-04 18:55:00,21.0,4.0,30.12,SW,225,0.0,0.0,47,0.00,,---,0.00,VWS V14.01,2013-03-04 23:55:00,
2013-03-04 19:00:00,20.8,3.8,30.12,SW,225,0.0,0.0,47,0.00,,---,0.00,VWS V14.01,2013-03-05 00:00:00,
2013-03-04 19:05:00,20.8,4.2,30.12,SW,225,0.0,0.0,48,0.00,,---,0.00,VWS V14.01,2013-03-05 00:05:00,
2013-03-04 19:10:00,20.7,4.1,30.12,SW,225,0.0,0.0,48,0.00,,---,0.00,VWS V14.01,2013-03-05 00:10:00,
2013-03-04 19:15:00,20.7,4.5,30.12,SW,225,0.0,0.0,49,0.00,,---,0.00,VWS V14.01,2013-03-05 00:15:00,
2013-03-04 19:20:00,20.7,4.5,30.12,SW,225,0.0,0.0,49,0.00,,---,0.00,VWS V14.01,2013-03-05 00:20:00,
2013-03-04 19:25:00,20.5,4.8,30.12,SW,225,0.0,0.0,50,0.00,,---,0.00,VWS V14.01,2013-03-05 00:25:00,
2013-03-04 19:30:00,20.3,4.6,30.12,SW,225,0.0,0.0,50,0.00,,---,0.00,VWS V14.01,2013-03-05 00:30:00,
2013-03-04 19:35:00,20.1,4.5,30.12,SW,225,0.0,0.0,50,0.00,,---,0.00,VWS V14.01,2013-03-05 00:35:00,
2013-03-04 19:40:00,19.8,4.1,30.12,SW,225,0.0,0.0,50,0.00,,---,0.00,VWS V14.01,2013-03-05 00:40:00,
2013-03-04 19:45:00,19.8,4.6,30.12,SW,225,0.0,0.0,51,0.00,,---,0.00,VWS V14.01,2013-03-05 00:45:00,
2013-03-04 19:50:00,19.4,4.2,30.12,SW,225,0.0,0.0,51,0.00,,---,0.00,VWS V14.01,2013-03-05 00:50:00,
2013-03-04 19:55:00,19.4,4.7,30.12,SW,225,0.0,0.0,52,0.00,,---,0.00,VWS V14.01,2013-03-05 00:55:00,
2013-03-04 20:00:00,19.4,4.7,30.12,SW,225,0.0,0.0,52,0.00,,---,0.00,VWS V14.01,2013-03-05 01:00:00,
2013-03-04 20:05:00,19.6,4.8,30.12,SW,225,0.0,0.0,52,0.00,,---,0.00,VWS V14.01,2013-03-05 01:05:00,
2013-03-04 20:10:00,19.8,5.0,30.12,SW,225,0.0,0.0,52,0.00,,---,0.00,VWS V14.01,2013-03-05 01:10:00,
2013-03-04 20:15:00,19.9,5.6,30.12,SW,225,0.0,0.0,53,0.00,,---,0.00,VWS V14.01,2013-03-05 01:15:00,
2013-03-04 20:20:00,20.1,5.7,30.12,SW,225,0.0,0.0,53,0.00,,---,0.00,VWS V14.01,2013-03-05 01:20:00,
2013-03-04 20:25:00,20.3,5.9,30.12,SW,225,0.0,0.0,53,0.00,,---,0.00,VWS V14.01,2013-03-05 01:25:00,
2013-03-04 20:30:00,20.3,5.9,30.12,SW,225,0.0,0.0,53,0.00,,---,0.00,VWS V14.01,2013-03-05 01:30:00,
2013-03-04 20:35:00,20.5,6.5,30.12,SW,225,0.0,0.0,54,0.00,,---,0.00,VWS V14.01,2013-03-05 01:35:00,
2013-03-04 20:40:00,20.5,6.5,30.12,SW,225,0.0,0.0,54,0.00,,---,0.00,VWS V14.01,2013-03-05 01:40:00,
2013-03-04 20:45:00,20.5,6.5,30.12,SW,225,0.0,0.0,54,0.00,,---,0.00,VWS V14.01,2013-03-05 01:45:00,
2013-03-04 20:50:00,20.3,6.3,30.12,SW,225,0.0,0.0,54,0.00,,---,0.00,VWS V14.01,2013-03-05 01:50:00,
2013-03-04 20:55:00,20.5,6.5,30.12,SW,225,0.0,0.0,54,0.00,,---,0.00,VWS V14.01,2013-03-05 01:55:00,
2013-03-04 21:00:00,20.7,6.7,30.12,SW,225,0.0,0.0,54,0.00,,---,0.00,VWS V14.01,2013-03-05 02:00:00,
2013-03-04 21:05:00,20.7,6.7,30.12,SW,225,0.0,0.0,54,0.00,,---,0.00,VWS V14.01,2013-03-05 02:05:00,
2013-03-04 21:10:00,20.8,6.8,30.12,SW,225,0.0,0.0,54,0.00,,---,0.00,VWS V14.01,2013-03-05 02:10:00,
2013-03-04 21:15:00,20.8,6.8,30.12,SW,225,0.0,0.0,54,0.00,,---,0.00,VWS V14.01,2013-03-05 02:15:00,
2013-03-04 21:20:00,20.7,6.7,30.12,SW,225,0.0,0.0,54,0.00,,---,0.00,VWS V14.01,2013-03-05 02:20:00,
2013-03-04 21:25:00,20.7,6.7,30.12,SW,225,0.0,0.0,54,0.00,,---,0.00,VWS V14.01,2013-03-05 02:25:00,
2013-03-04 21:30:00,20.5,6.5,30.12,SW,225,0.0,0.0,54,0.00,,---,0.00,VWS V14.01,2013-03-05 02:30:00,
2013-03-04 21:35:00,20.5,6.5,30.12,SW,225,0.0,0.0,54,0.00,,---,0.00,VWS V14.01,2013-03-05 02:35:00,
2013-03-04 21:40:00,20.5,6.5,30.12,SW,225,0.0,0.0,54,0.00,,---,0.00,VWS V14.01,2013-03-05 02:40:00,
2013-03-04 21:45:00,20.5,6.5,30.12,SW,225,0.0,0.0,54,0.00,,---,0.00,VWS V14.01,2013-03-05 02:45:00,
2013-03-04 21:50:00,20.7,7.1,30.12,SW,225,0.0,0.0,55,0.00,,---,0.00,VWS V14.01,2013-03-05 02:50:00,
2013-03-04 21:55:00,21.0,7.4,30.12,SW,225,0.0,0.0,55,0.00,,---,0.00,VWS V14.01,2013-03-05 02:55:00,
2013-03-04 22:00:00,21.2,7.6,30.12,SW,225,0.0,0.0,55,0.00,,---,0.00,VWS V14.01,2013-03-05 03:00:00,
2013-03-04 22:05:00,21.2,7.6,30.12,SW,225,0.0,0.0,55,0.00,,---,0.00,VWS V14.01,2013-03-05 03:05:00,
2013-03-04 22:10:00,21.6,7.9,30.12,SW,225,0.0,0.0,55,0.00,,---,0.00,VWS V14.01,2013-03-05 03:10:00,
2013-03-04 22:15:00,21.7,8.1,30.12,SW,225,0.0,0.0,55,0.00,,---,0.00,VWS V14.01,2013-03-05 03:15:00,
2013-03-04 22:20:00,21.9,8.2,30.12,SW,225,0.0,0.0,55,0.00,,---,0.00,VWS V14.01,2013-03-05 03:20:00,
2013-03-04 22:25:00,21.9,8.2,30.12,SW,225,0.0,0.0,55,0.00,,---,0.00,VWS V14.01,2013-03-05 03:25:00,
2013-03-04 22:30:00,21.9,8.2,30.12,SW,225,0.0,0.0,55,0.00,,---,0.00,VWS V14.01,2013-03-05 03:30:00,
2013-03-04 22:35:00,22.1,8.4,30.12,SW,225,0.0,0.0,55,0.00,,---,0.00,VWS V14.01,2013-03-05 03:35:00,
2013-03-04 22:40:00,22.1,8.4,30.12,SW,225,0.0,0.0,55,0.00,,---,0.00,VWS V14.01,2013-03-05 03:40:00,
2013-03-04 22:45:00,22.3,8.2,30.12,SW,225,0.0,0.0,54,0.00,,---,0.00,VWS V14.01,2013-03-05 03:45:00,
2013-03-04 22:50:00,22.3,8.2,30.12,SW,225,0.0,0.0,54,0.00,,---,0.00,VWS V14.01,2013-03-05 03:50:00,
2013-03-04 22:55:00,22.3,8.2,30.12,SW,225,0.0,0.0,54,0.00,,---,0.00,VWS V14.01,2013-03-05 03:55:00,
2013-03-04 23:00:00,22.1,7.6,30.12,SW,225,0.0,0.0,53,0.00,,---,0.00,VWS V14.01,2013-03-05 04:00:00,
2013-03-04 23:05:00,21.9,7.4,30.12,SW,225,0.0,0.0,53,0.00,,---,0.00,VWS V14.01,2013-03-05 04:05:00,
2013-03-04 23:10:00,21.9,7.4,30.12,SW,225,0.0,0.0,53,0.00,,---,0.00,VWS V14.01,2013-03-05 04:10:00,
2013-03-04 23:15:00,21.7,7.3,30.12,SW,225,0.0,0.0,53,0.00,,---,0.00,VWS V14.01,2013-03-05 04:15:00,
2013-03-04 23:20:00,21.7,7.3,30.12,SW,225,0.0,0.0,53,0.00,,---,0.00,VWS V14.01,2013-03-05 04:20:00,
2013-03-04 23:25:00,21.7,7.3,30.12,SW,225,0.0,0.0,53,0.00,,---,0.00,VWS V14.01,2013-03-05 04:25:00,
2013-03-04 23:30:00,21.9,7.4,30.12,SW,225,0.0,0.0,53,0.00,,---,0.00,VWS V14.01,2013-03-05 04:30:00,
2013-03-04 23:35:00,21.7,7.3,30.12,SW,225,0.0,0.0,53,0.00,,---,0.00,VWS V14.01,2013-03-05 04:35:00,
2013-03-04 23:40:00,21.9,7.4,30.12,SW,225,0.0,0.0,53,0.00,,---,0.00,VWS V14.01,2013-03-05 04:40:00,
2013-03-04 23:45:00,22.1,8.0,30.12,SW,225,0.0,0.0,54,0.00,,---,0.00,VWS V14.01,2013-03-05 04:45:00,
2013-03-04 23:50:00,22.3,8.2,30.12,SW,225,0.0,0.0,54,0.00,,---,0.00,VWS V14.01,2013-03-05 04:50:00,
2013-03-04 23:55:00,22.3,8.2,30.12,SW,225,0.0,2.7,54,0.00,,---,0.00,VWS V14.01,2013-03-05 04:55:00,